Wind_Speed
2 2 4 5 6 7 8 9 10 11 12 12 13 14 14 15 16 16 17 18 18 19 19 19 20 20 20 20 21 21 21 22 23 25 26 26 26 26 26 27 27 28 29
3 5 6 6 7 9 10 11 12 13 14 14 15 16 17 18 18 19 19 20 20 21 21 22 22 22 23 23 23 23 23 24 26 27 28 29 29 30 30 30 31 31 32
5 6 7 8 9 11 12 13 14 15 16 17 18 19 19 20 20 20 21 21 22 23 24 24 25 25 26 26 26 26 26 26 28 29 30 32 32 33 33 34 35 35 36
7 8 10 11 12 14 15 16 17 18 19 20 20 21 21 21 21 21 22 23 23 24 25 26 27 27 28 29 30 30 30 30 31 32 33 34 35 36 36 37 38 39 40
9 11 12 14 15 17 18 19 20 20 21 21 21 21 21 22 22 23 24 25 25 26 27 28 28 29 30 32 32 33 34 35 36 36 37 38 39 40 40 41 41 42 43
11 13 15 17 18 19 20 20 21 21 21 21 21 21 22 23 24 25 26 28 28 29 30 31 31 32 33 34 35 36 37 38 39 40 41 42 44 45 45 46 46 46 47
14 15 17 19 20 20 20 20 20 20 20 21 21 22 23 25 26 27 29 30 31 32 33 34 35 36 37 37 39 40 41 42 43 44 45 47 48 49 50 51 52 52 53
16 17 18 19 19 19 19 19 20 20 21 22 23 24 26 27 28 29 30 31 32 34 35 36 37 39 40 42 43 44 45 46 47 48 50 51 52 53 55 56 57 58 59
17 18 18 17 17 18 18 19 20 21 22 23 24 25 27 28 29 30 31 32 34 35 36 38 40 42 43 45 46 48 50 51 52 54 55 56 58 59 60 61 62 63 64
16 16 16 16 17 18 19 20 21 22 23 24 25 26 27 28 28 29 30 32 33 35 37 39 41 43 45 47 49 51 53 55 56 58 60 61 63 66 67 69 70 71 71
14 14 15 17 18 19 20 22 23 24 25 25 26 26 27 27 28 29 30 32 34 36 37 40 42 44 46 48 51 53 55 57 59 61 63 66 69 72 74 77 80 82 82
13 14 16 17 19 20 21 22 23 25 25 26 27 27 28 29 30 31 32 34 35 37 39 41 43 45 47 50 53 55 57 60 62 65 67 70 74 77 81 85 89 92 94
13 14 16 18 20 21 22 23 24 26 27 28 29 30 31 32 33 34 35 37 38 39 41 43 45 47 50 52 55 57 60 62 65 68 71 75 78 83 87 93 97 101 105
13 15 17 18 19 21 22 23 25 27 29 30 32 33 34 36 37 38 39 40 41 43 44 46 48 50 53 55 58 60 63 65 68 71 75 80 84 89 95 100 104 108 111
14 15 16 18 19 21 23 24 26 28 30 32 33 35 36 37 39 40 42 43 44 46 47 49 51 53 56 58 61 63 66 69 72 76 80 86 91 97 101 104 107 110 109
14 15 16 18 20 22 24 26 28 30 32 34 35 37 38 39 41 42 43 45 46 48 50 52 54 56 59 62 64 67 70 73 77 81 86 91 97 101 104 106 105 101 98
15 17 18 20 21 23 25 27 29 31 34 36 37 39 40 41 43 44 46 47 48 50 52 54 57 60 62 64 67 70 74 78 82 86 91 95 99 102 103 102 98 92 89
18 19 21 22 24 25 27 29 31 33 36 38 40 42 43 44 46 47 48 49 50 52 54 57 60 63 65 67 70 73 77 81 85 90 93 96 98 99 97 95 91 85 82
21 23 24 25 27 28 29 31 33 36 38 40 42 44 46 47 49 50 50 51 53 54 56 59 62 65 67 69 72 75 79 84 88 91 93 94 94 94 91 88 84 79 75
24 26 28 29 30 31 32 33 35 38 40 43 45 47 49 50 52 52 53 54 55 56 58 61 64 67 69 71 74 77 82 86 89 90 91 90 89 88 86 83 78 73 69
28 30 31 32 33 34 35 37 38 41 43 45 48 50 52 53 54 55 56 57 57 59 61 62 65 68 71 73 76 78 82 85 87 86 85 84 83 83 81 78 74 70 65
31 33 34 35 36 38 39 40 41 43 46 48 51 53 54 56 57 58 58 59 59 61 62 64 66 70 73 77 79 82 83 84 85 83 80 79 78 78 77 75 71 67 63
34 36 37 38 40 41 42 43 45 47 49 51 54 56 57 58 59 60 61 61 62 63 64 65 68 71 75 79 82 85 87 87 86 80 75 73 73 72 73 72 69 65 61
37 38 40 41 42 44 45 47 48 50 52 54 56 58 60 60 61 62 62 63 64 65 65 67 70 73 76 80 83 86 87 88 87 83 73 69 68 68 69 69 67 63 58
40 41 43 44 45 46 48 49 51 53 55 57 59 60 62 62 62 63 64 65 65 66 66 68 71 75 78 81 83 84 85 85 85 84 76 67 63 63 65 66 65 61 56
43 44 45 47 47 49 50 52 54 56 57 59 61 63 63 63 63 64 65 66 66 66 67 69 73 76 79 81 83 83 83 82 81 80 76 69 63 59 60 62 63 60 55
Wind_Direction
22 341 330 327 323 317 312 308 305 302 300 299 298 298 297 297 297 296 296 296 296 295 294 293 291 289 287 285 282 280 279 278 278 277 276 275 273 271 269 267 265 263 261
337 323 321 320 317 312 309 306 304 301 299 298 297 297 297 297 296 297 297 297 297 296 296 295 294 292 290 288 286 284 282 280 277 276 275 275 273 271 270 268 267 265 263
322 317 316 316 313 309 306 304 303 301 299 298 298 297 296 296 296 296 296 297 297 297 296 296 295 294 293 292 290 287 285 283 280 278 277 276 275 273 270 269 267 266 264
316 314 314 313 310 307 305 304 303 302 300 299 298 298 297 297 296 296 297 297 296 295 294 293 292 292 292 291 291 290 288 285 283 281 279 278 277 275 273 271 268 267 265
312 312 311 309 307 306 305 304 303 302 301 301 301 302 302 301 300 299 299 297 296 294 293 291 290 289 290 290 290 289 288 287 285 283 281 280 278 277 275 273 270 268 265
308 309 309 308 307 306 306 305 305 305 305 305 306 305 304 302 301 300 300 298 296 295 293 291 290 289 288 288 288 288 287 287 286 285 284 282 280 279 277 275 272 269 266
306 307 307 307 308 308 308 308 309 310 310 310 309 307 305 304 302 301 300 299 297 296 294 292 291 289 288 287 287 286 285 285 284 283 282 281 280 279 278 276 274 271 268
304 305 307 308 309 310 311 312 314 314 314 313 311 309 308 306 305 303 302 300 299 297 296 294 292 290 289 287 286 285 283 282 280 279 278 277 276 276 276 275 273 271 269
304 307 309 312 314 316 317 317 318 317 317 315 314 312 311 309 308 307 305 304 302 300 298 297 295 293 291 290 288 286 284 283 281 279 278 278 277 275 274 273 271 269 268
307 311 314 318 320 321 321 321 321 320 319 318 316 315 315 314 313 312 311 309 307 305 303 301 299 297 295 293 291 289 287 286 284 283 282 281 280 279 276 274 272 270 268
313 317 321 323 324 324 324 323 323 322 321 320 319 319 318 318 317 316 315 314 312 310 308 306 304 302 300 297 295 293 292 290 288 287 287 286 285 283 281 278 276 274 271
319 323 326 326 325 325 325 324 323 322 321 320 320 320 319 318 317 316 316 315 313 312 311 310 308 306 304 301 299 297 296 294 292 291 290 290 289 288 286 284 282 278 275
324 326 327 327 326 326 325 324 324 322 321 319 318 317 316 315 315 314 313 313 313 312 312 311 310 309 307 305 303 301 300 298 296 295 294 294 294 293 292 290 287 283 279
326 328 329 329 329 329 329 328 327 325 323 321 319 317 315 313 312 312 311 311 311 311 312 312 312 312 310 309 307 305 303 302 301 300 300 299 299 297 296 293 290 286 281
325 328 330 332 333 334 334 333 331 329 327 324 322 319 317 315 313 312 311 310 310 311 311 312 313 313 312 311 310 308 307 306 305 305 304 304 303 302 300 296 292 288 281
320 323 327 329 331 332 333 333 333 331 330 328 326 323 321 318 316 313 312 311 311 311 312 313 314 315 314 313 313 312 311 310 310 309 308 308 307 305 303 299 295 289 282
312 317 322 325 328 329 331 332 332 331 331 330 329 327 325 323 320 317 315 313 312 312 312 313 314 315 315 315 315 314 314 313 313 312 311 310 309 308 305 301 296 290 283
308 312 317 321 324 326 328 329 330 331 330 330 329 329 327 326 323 321 318 316 314 314 313 314 315 316 316 317 317 317 316 315 315 314 314 313 311 309 306 302 298 292 285
305 309 313 317 320 322 324 326 327 328 328 329 329 328 328 327 325 323 320 318 316 315 315 314 315 316 317 318 319 319 318 317 316 316 316 314 312 310 307 304 300 294 288
301 305 309 312 315 319 321 322 323 324 325 326 327 327 327 326 325 323 321 319 318 317 316 316 317 317 318 320 320 321 320 319 319 318 317 316 313 311 309 307 303 299 292
300 303 306 309 312 315 317 319 320 321 322 323 324 325 325 325 324 323 321 320 319 318 317 317 318 319 320 321 322 322 322 321 320 320 318 316 314 312 311 310 308 304 298
299 302 305 307 309 312 314 316 317 317 319 320 322 322 322 323 323 322 321 320 319 318 318 318 319 321 322 323 323 323 323 322 322 322 321 318 316 315 313 313 312 309 303
297 300 303 305 307 309 311 314 315 316 317 318 320 320 321 321 321 321 320 319 318 318 318 319 321 323 324 324 324 324 324 324 325 326 323 320 318 317 315 315 315 313 309
296 298 301 303 305 306 309 311 312 314 315 316 318 318 319 319 320 320 319 318 317 318 319 320 322 324 325 325 325 325 325 325 326 328 327 323 321 319 318 317 318 318 315
293 296 298 300 302 304 306 308 310 311 313 315 316 317 318 318 318 318 318 318 317 318 320 322 323 324 325 325 325 325 326 326 326 327 329 327 324 322 320 319 320 321 320
290 293 295 297 299 301 303 305 308 310 312 313 315 316 317 317 318 318 317 317 318 319 321 323 324 324 325 325 325 326 326 326 327 327 328 328 328 326 322 321 321 324 323
Height
5875 5875 5874 5874 5874 5873 5873 5873 5872 5872 5871 5870 5870 5869 5868 5867 5867 5866 5865 5865 5864 5864 5863 5863 5863 5863 5863 5863 5864 5864 5865 5865 5864 5863 5864 5865 5866 5868 5869 5871 5872 5874 5876
5874 5874 5873 5873 5872 5872 5871 5871 5870 5869 5869 5868 5867 5866 5865 5864 5863 5862 5861 5861 5860 5859 5858 5858 5858 5858 5858 5858 5859 5859 5860 5860 5859 5859 5859 5859 5861 5862 5864 5865 5867 5868 5870
5873 5872 5872 5871 5871 5870 5870 5869 5868 5867 5866 5865 5864 5863 5862 5860 5859 5858 5857 5857 5856 5855 5854 5853 5852 5852 5852 5852 5852 5853 5854 5854 5853 5854 5854 5854 5854 5856 5857 5859 5860 5862 5863
5872 5871 5870 5869 5869 5868 5867 5866 5865 5864 5862 5861 5860 5859 5858 5856 5855 5854 5853 5852 5852 5851 5850 5849 5848 5847 5846 5846 5846 5846 5846 5847 5847 5847 5847 5847 5848 5848 5850 5852 5853 5855 5856
5870 5870 5869 5868 5867 5866 5864 5863 5861 5860 5858 5857 5855 5854 5853 5852 5851 5850 5849 5848 5847 5846 5845 5844 5843 5842 5841 5840 5839 5839 5839 5838 5838 5839 5839 5839 5840 5840 5841 5843 5845 5847 5848
5869 5868 5867 5866 5864 5863 5861 5859 5858 5856 5854 5852 5851 5849 5848 5847 5846 5845 5844 5842 5841 5840 5839 5838 5837 5836 5835 5834 5833 5832 5831 5831 5830 5830 5830 5830 5830 5830 5831 5833 5835 5837 5839
5867 5866 5864 5863 5861 5859 5857 5856 5854 5852 5850 5848 5847 5845 5844 5842 5841 5839 5838 5837 5835 5834 5832 5831 5830 5829 5827 5826 5825 5824 5823 5823 5822 5821 5820 5820 5820 5820 5820 5821 5822 5825 5827
5865 5864 5862 5860 5858 5856 5854 5852 5850 5848 5846 5845 5843 5841 5839 5837 5835 5833 5832 5830 5828 5826 5825 5823 5821 5820 5818 5817 5816 5814 5813 5813 5812 5811 5810 5810 5809 5809 5808 5809 5809 5811 5812
5863 5861 5859 5857 5855 5853 5851 5849 5847 5845 5843 5841 5838 5836 5834 5832 5829 5827 5825 5823 5821 5818 5816 5814 5812 5810 5808 5806 5804 5802 5801 5800 5799 5798 5797 5796 5795 5795 5794 5795 5795 5796 5797
5860 5858 5856 5854 5852 5850 5848 5846 5843 5841 5839 5836 5834 5831 5828 5826 5823 5821 5818 5815 5812 5810 5807 5805 5802 5799 5796 5794 5791 5789 5787 5785 5783 5781 5780 5778 5777 5776 5775 5776 5776 5778 5780
5857 5855 5853 5852 5849 5847 5845 5842 5840 5837 5834 5832 5829 5826 5823 5820 5817 5814 5811 5807 5804 5801 5798 5795 5791 5788 5785 5781 5778 5775 5772 5769 5766 5764 5761 5758 5756 5754 5752 5751 5751 5752 5754
5855 5853 5851 5849 5847 5844 5841 5839 5836 5833 5830 5827 5824 5821 5817 5814 5811 5807 5803 5800 5796 5792 5789 5785 5781 5777 5773 5768 5764 5760 5756 5752 5748 5745 5741 5737 5734 5730 5727 5724 5722 5721 5722
5852 5850 5848 5846 5843 5841 5838 5835 5832 5829 5825 5822 5819 5815 5812 5808 5804 5800 5796 5792 5788 5783 5779 5774 5770 5765 5760 5755 5750 5745 5740 5735 5730 5725 5720 5715 5710 5705 5700 5694 5689 5686 5685
5849 5848 5846 5843 5840 5837 5834 5831 5827 5824 5820 5816 5813 5809 5805 5801 5797 5792 5788 5783 5778 5774 5768 5763 5758 5753 5747 5742 5736 5729 5723 5717 5710 5704 5697 5690 5684 5677 5670 5662 5654 5646 5641
5847 5845 5843 5840 5837 5834 5830 5827 5823 5819 5815 5811 5807 5802 5798 5793 5789 5784 5779 5774 5768 5763 5758 5752 5746 5741 5734 5728 5720 5713 5706 5698 5690 5682 5673 5665 5656 5646 5636 5625 5614 5603 5594
5844 5841 5839 5836 5833 5830 5826 5822 5818 5814 5810 5805 5800 5795 5790 5785 5780 5775 5769 5764 5758 5752 5746 5740 5734 5728 5721 5713 5705 5697 5688 5678 5669 5659 5649 5638 5626 5612 5598 5584 5570 5558 5550
5840 5838 5835 5832 5829 5825 5821 5817 5813 5809 5804 5799 5794 5788 5783 5777 5771 5766 5760 5754 5748 5742 5735 5728 5721 5714 5706 5698 5689 5680 5669 5659 5648 5636 5624 5610 5595 5579 5561 5545 5531 5520 5512
5836 5833 5830 5827 5824 5820 5816 5812 5807 5803 5798 5793 5787 5781 5775 5769 5763 5756 5750 5743 5737 5730 5723 5716 5708 5700 5692 5683 5674 5663 5652 5640 5627 5613 5598 5581 5564 5547 5529 5513 5498 5487 5479
5832 5829 5826 5822 5819 5815 5810 5806 5801 5796 5791 5786 5780 5774 5767 5761 5754 5747 5740 5732 5725 5718 5711 5703 5695 5686 5678 5669 5659 5648 5635 5621 5606 5590 5572 5553 5534 5516 5499 5484 5470 5458 5449
5827 5824 5820 5817 5813 5808 5804 5799 5795 5789 5784 5778 5772 5765 5759 5752 5744 5737 5729 5722 5714 5706 5698 5690 5681 5672 5663 5653 5643 5631 5617 5601 5583 5565 5546 5526 5507 5489 5472 5457 5444 5432 5423
5822 5818 5815 5811 5806 5802 5797 5793 5788 5782 5776 5770 5764 5757 5750 5742 5735 5727 5719 5710 5702 5694 5685 5677 5667 5657 5647 5637 5627 5617 5603 5584 5564 5544 5523 5503 5483 5465 5448 5433 5420 5408 5398
5816 5812 5808 5804 5799 5795 5790 5785 5780 5774 5768 5762 5755 5747 5740 5732 5724 5716 5708 5699 5690 5682 5673 5663 5653 5643 5631 5619 5608 5597 5586 5572 5551 5528 5504 5482 5462 5444 5427 5413 5400 5387 5375
5809 5805 5801 5797 5792 5787 5782 5777 5772 5766 5759 5752 5745 5738 5730 5722 5714 5705 5696 5687 5678 5669 5659 5649 5639 5628 5615 5601 5587 5573 5559 5546 5532 5515 5491 5467 5446 5428 5410 5395 5382 5368 5355
5802 5798 5794 5789 5784 5779 5774 5769 5763 5757 5750 5743 5736 5728 5720 5711 5703 5694 5685 5675 5666 5656 5646 5635 5624 5612 5599 5585 5569 5552 5535 5517 5502 5492 5478 5455 5434 5414 5395 5379 5366 5353 5340
5794 5790 5785 5781 5776 5771 5765 5760 5754 5748 5741 5733 5725 5717 5709 5700 5691 5682 5673 5663 5653 5643 5633 5621 5609 5596 5583 5568 5553 5535 5517 5498 5478 5462 5453 5441 5423 5402 5382 5365 5351 5339 5327
5785 5781 5776 5772 5767 5762 5756 5750 5744 5737 5730 5722 5714 5706 5697 5689 5680 5670 5661 5651 5641 5630 5619 5607 5594 5581 5567 5552 5535 5518 5500 5481 5463 5444 5429 5419 5407 5392 5372 5353 5338 5327 5316